Time,TemperatureF,DewpointF,PressureIn,WindDirection,WindDirectionDegrees,WindSpeedMPH,WindSpeedGustMPH,Humidity,HourlyPrecipIn,Conditions,Clouds,dailyrainin,SoftwareType,DateUTC
2015-03-28 00:12:00,37.0,27.0,30.07,SSE,159,7.0,15.0,67,0.00,,,0.00,,2015-03-28 05:12:00,
2015-03-28 00:22:00,37.0,27.0,30.06,SSE,153,8.0,12.0,67,0.00,,,0.00,,2015-03-28 05:22:00,
2015-03-28 00:42:00,37.0,27.0,30.06,SSE,163,12.0,13.0,68,0.00,,,0.00,,2015-03-28 05:42:00,
2015-03-28 00:52:00,36.0,26.0,30.06,SE,126,3.0,13.0,68,0.00,,,0.00,,2015-03-28 05:52:00,
2015-03-28 01:12:00,36.0,27.0,30.05,SE,128,5.0,12.0,69,0.00,,,0.00,,2015-03-28 06:12:00,
2015-03-28 01:22:00,36.0,27.0,30.05,SSE,148,11.0,13.0,69,0.00,,,0.00,,2015-03-28 06:22:00,
2015-03-28 01:42:00,36.0,27.0,30.05,SE,127,8.0,12.0,69,0.00,,,0.00,,2015-03-28 06:42:00,
2015-03-28 01:51:00,35.0,26.0,30.05,ESE,121,7.0,10.0,70,0.00,,,0.00,,2015-03-28 06:51:00,
2015-03-28 02:11:00,34.0,26.0,30.05,SSE,161,3.0,6.0,72,0.00,,,0.00,,2015-03-28 07:11:00,
2015-03-28 02:21:00,34.0,26.0,30.05,SE,146,3.0,7.0,73,0.00,,,0.00,,2015-03-28 07:21:00,
2015-03-28 02:41:00,34.0,26.0,30.05,ESE,122,3.0,5.0,73,0.00,,,0.00,,2015-03-28 07:41:00,
2015-03-28 02:51:00,34.0,27.0,30.04,SSE,152,3.0,6.0,74,0.00,,,0.00,,2015-03-28 07:51:00,
2015-03-28 03:11:00,33.0,26.0,30.04,SSE,149,3.0,5.0,75,0.00,,,0.00,,2015-03-28 08:11:00,
2015-03-28 03:21:00,33.0,26.0,30.04,ESE,112,3.0,5.0,75,0.00,,,0.00,,2015-03-28 08:21:00,
2015-03-28 03:41:00,33.0,26.0,30.04,ESE,113,1.0,3.0,76,0.00,,,0.00,,2015-03-28 08:41:00,
2015-03-28 03:51:00,32.0,26.0,30.04,East,80,2.0,6.0,77,0.00,,,0.00,,2015-03-28 08:51:00,
2015-03-28 04:11:00,32.0,26.0,30.03,ESE,108,2.0,3.0,77,0.00,,,0.00,,2015-03-28 09:11:00,
2015-03-28 04:22:00,31.0,25.0,30.03,NE,54,5.0,6.0,77,0.00,,,0.00,,2015-03-28 09:22:00,
2015-03-28 04:52:00,29.0,25.0,30.05,NE,41,8.0,10.0,85,0.00,,,0.00,,2015-03-28 09:52:00,
2015-03-28 05:12:00,29.0,25.0,30.05,NE,44,8.0,9.0,85,0.00,,,0.00,,2015-03-28 10:12:00,
2015-03-28 05:22:00,29.0,25.0,30.05,NE,43,8.0,12.0,84,0.00,,,0.00,,2015-03-28 10:22:00,
2015-03-28 05:42:00,29.0,25.0,30.06,NE,34,8.0,10.0,85,0.00,,,0.00,,2015-03-28 10:42:00,
2015-03-28 05:52:00,29.0,25.0,30.06,NE,53,7.0,10.0,85,0.00,,,0.00,,2015-03-28 10:52:00,
2015-03-28 06:12:00,29.0,25.0,30.07,NNE,28,6.0,10.0,85,0.00,,,0.00,,2015-03-28 11:12:00,
2015-03-28 06:23:00,29.0,25.0,30.07,NE,42,7.0,9.0,85,0.00,,,0.00,,2015-03-28 11:23:00,
2015-03-28 06:42:00,29.0,25.0,30.08,ENE,62,9.0,12.0,85,0.00,,,0.00,,2015-03-28 11:42:00,
2015-03-28 06:52:00,29.0,25.0,30.08,ENE,60,10.0,12.0,85,0.00,,,0.00,,2015-03-28 11:52:00,
2015-03-28 07:11:00,29.0,25.0,30.09,ENE,65,9.0,12.0,84,0.00,,,0.00,,2015-03-28 12:11:00,
2015-03-28 07:22:00,29.0,25.0,30.09,ENE,68,9.0,12.0,83,0.00,,,0.00,,2015-03-28 12:22:00,
2015-03-28 07:42:00,30.0,25.0,30.10,ENE,76,9.0,12.0,83,0.00,,,0.00,,2015-03-28 12:42:00,
2015-03-28 07:51:00,29.0,25.0,30.10,ENE,78,9.0,13.0,84,0.00,,,0.00,,2015-03-28 12:51:00,
2015-03-28 08:11:00,30.0,26.0,30.10,ENE,75,10.0,13.0,85,0.00,,,0.00,,2015-03-28 13:11:00,
2015-03-28 08:21:00,30.0,26.0,30.10,ENE,77,10.0,14.0,85,0.00,,,0.00,,2015-03-28 13:21:00,
2015-03-28 08:42:00,31.0,27.0,30.10,ENE,68,11.0,15.0,85,0.00,,,0.00,,2015-03-28 13:42:00,
2015-03-28 08:51:00,32.0,28.0,30.11,East,99,10.0,15.0,85,0.00,,,0.00,,2015-03-28 13:51:00,
2015-03-28 09:21:00,34.0,29.0,30.11,ESE,102,10.0,17.0,82,0.00,,,0.00,,2015-03-28 14:21:00,
2015-03-28 09:41:00,35.0,29.0,30.11,ESE,112,12.0,16.0,79,0.00,,,0.00,,2015-03-28 14:41:00,
2015-03-28 09:51:00,36.0,29.0,30.11,ESE,111,13.0,17.0,76,0.00,,,0.00,,2015-03-28 14:51:00,
2015-03-28 10:11:00,38.0,30.0,30.12,SE,137,9.0,12.0,74,0.00,,,0.00,,2015-03-28 15:11:00,
2015-03-28 10:22:00,38.0,30.0,30.11,SE,126,10.0,14.0,72,0.00,,,0.00,,2015-03-28 15:22:00,
2015-03-28 10:42:00,40.0,31.0,30.12,SE,140,7.0,12.0,69,0.00,,,0.00,,2015-03-28 15:42:00,
2015-03-28 10:52:00,40.0,31.0,30.12,SSE,148,6.0,13.0,69,0.00,,,0.00,,2015-03-28 15:52:00,